Weather in Karataban

Russia / Chelyabinsk Oblast     54°41′20″N   61°40′46″E
temp.,
°C
wind,
m/s
gust,
m/s
humid.,
%
clouds,
%
prec.,
mm/h
press.,
hPa
HPBL,
m
2 march, tue
tue223:00−17ssw229785 0.1 101820
02:00−19sw239839 0.0 101720
05:00−19ssw239828 0.0 101620
08:00−19ssw349845 0.0 101435
11:00−15ssw469423 0.0 1013242
14:00−12s579368 0.0 1010304
17:00−11ssw5109272 0.0 1008352
20:00−13ssw6109296 0.0 1006241
3 march, wed
wed323:00−9ssw6139298 0.0 1006399
02:00−11sw61285100 0.1 1004398
05:00−10sw61294100 0.2 1004432
08:00−8sw71394100 0.4 1002574
11:00−5sw71284100 0.6 1002605
14:00−3sw7118524 0.0 1001558
17:00−3sw6118726 0.0 1001478
20:00−5ssw51191100 0.0 1001227
4 march, thu
thu423:00−6ssw459488 0.0 100185
02:00−5wsw249784 0.3 1000118
05:00−8wsw129692 0.4 99921
08:00−10wsw239382 0.0 99921
11:00−6w469574 0.3 999332
14:00−4wnw7108194 0.3 10001033
17:00−6w5108180 0.3 1002443
20:00−10sw488527 0.0 1003111
5 march, fri
fri523:00−10sw5148420 0.0 1004289
02:00−7sw71682100 0.0 1002596
05:00−6sw91784100 0.0 1001658
08:00−4sw91882100 0.0 1000649
11:00−1sw91581100 0.0 1001898
14:000sw81380100 0.0 10021019
17:000sw81393100 0.0 1002918
20:00−1sw71583100 0.1 1000641
6 march, sat
sat623:00−1sw81784100 0.1 1000760
02:00−4wnw9168433 0.0 1002646
05:00−10w5138523 0.0 1007320
08:00−13w511860 0.0 1011260
11:00−10w611820 0.0 1012539
14:00−7w58790 0.0 1013847
17:00−8wsw358641 0.0 1013195
20:00−10ssw2387100 0.0 101221